Time,TemperatureF,DewpointF,PressureIn,WindDirection,WindDirectionDegrees,WindSpeedMPH,WindSpeedGustMPH,Humidity,HourlyPrecipIn,Conditions,Clouds,dailyrainin,SoftwareType,DateUTC
2013-01-30 00:04:00,70.0,65.0,30.12,SE,137,6.0,9.0,84,-99.99,,,-99.99,,2013-01-30 05:04:00,
2013-01-30 00:12:00,70.0,65.0,30.12,SE,135,6.0,10.0,83,-99.99,,,-99.99,,2013-01-30 05:12:00,
2013-01-30 00:22:00,70.0,65.0,30.12,SE,135,6.0,10.0,83,-99.99,,,-99.99,,2013-01-30 05:22:00,
2013-01-30 00:32:00,70.0,65.0,30.11,SE,135,6.0,11.0,82,-99.99,,,-99.99,,2013-01-30 05:32:00,
2013-01-30 00:43:00,70.0,65.0,30.10,SE,137,7.0,12.0,82,-99.99,,,-99.99,,2013-01-30 05:43:00,
2013-01-30 00:52:00,70.0,65.0,30.10,SE,139,8.0,13.0,82,-99.99,,,-99.99,,2013-01-30 05:52:00,
2013-01-30 01:02:00,70.0,65.0,30.10,SE,139,8.0,13.0,82,-99.99,,,-99.99,,2013-01-30 06:02:00,
2013-01-30 01:12:00,71.0,64.0,30.09,SE,140,10.0,16.0,79,-99.99,,,-99.99,,2013-01-30 06:12:00,
2013-01-30 01:22:00,71.0,64.0,30.09,SE,140,10.0,16.0,79,-99.99,,,-99.99,,2013-01-30 06:22:00,
2013-01-30 01:32:00,71.0,64.0,30.09,SE,140,8.0,12.0,79,-99.99,,,-99.99,,2013-01-30 06:32:00,
2013-01-30 01:42:00,71.0,64.0,30.09,SE,141,8.0,11.0,79,-99.99,,,-99.99,,2013-01-30 06:42:00,
2013-01-30 01:52:00,71.0,64.0,30.09,SE,140,8.0,13.0,79,-99.99,,,-99.99,,2013-01-30 06:52:00,
2013-01-30 02:02:00,71.0,64.0,30.09,SE,140,8.0,13.0,79,-99.99,,,-99.99,,2013-01-30 07:02:00,
2013-01-30 02:11:00,70.0,64.0,30.09,SE,143,6.0,10.0,80,-99.99,,,-99.99,,2013-01-30 07:11:00,
2013-01-30 02:22:00,70.0,64.0,30.09,SE,143,6.0,10.0,80,-99.99,,,-99.99,,2013-01-30 07:22:00,
2013-01-30 02:32:00,70.0,64.0,30.09,SE,142,7.0,14.0,80,-99.99,,,-99.99,,2013-01-30 07:32:00,
2013-01-30 02:42:00,70.0,64.0,30.09,SE,142,7.0,11.0,80,-99.99,,,-99.99,,2013-01-30 07:42:00,
2013-01-30 02:52:00,70.0,64.0,30.09,SE,145,7.0,10.0,80,-99.99,,,-99.99,,2013-01-30 07:52:00,
2013-01-30 03:02:00,70.0,64.0,30.09,SE,145,7.0,10.0,80,-99.99,,,-99.99,,2013-01-30 08:02:00,
2013-01-30 03:11:00,70.0,64.0,30.09,SE,141,7.0,10.0,80,-99.99,,,-99.99,,2013-01-30 08:11:00,
2013-01-30 03:22:00,70.0,64.0,30.09,SE,141,7.0,10.0,80,-99.99,,,-99.99,,2013-01-30 08:22:00,
2013-01-30 03:32:00,70.0,64.0,30.09,SE,141,7.0,10.0,80,-99.99,,,-99.99,,2013-01-30 08:32:00,
2013-01-30 03:42:00,70.0,64.0,30.08,SE,142,5.0,8.0,82,-99.99,,,-99.99,,2013-01-30 08:42:00,
2013-01-30 03:52:00,69.0,64.0,30.08,SE,142,5.0,7.0,83,-99.99,,,-99.99,,2013-01-30 08:52:00,
2013-01-30 04:02:00,69.0,64.0,30.08,SE,142,5.0,7.0,83,-99.99,,,-99.99,,2013-01-30 09:02:00,
2013-01-30 04:11:00,69.0,64.0,30.08,SE,142,6.0,8.0,83,-99.99,,,-99.99,,2013-01-30 09:11:00,
2013-01-30 04:22:00,69.0,64.0,30.08,SE,142,6.0,8.0,83,-99.99,,,-99.99,,2013-01-30 09:22:00,
2013-01-30 04:32:00,69.0,64.0,30.08,SE,142,5.0,6.0,83,-99.99,,,-99.99,,2013-01-30 09:32:00,
2013-01-30 04:42:00,69.0,64.0,30.08,SE,143,5.0,10.0,84,-99.99,,,-99.99,,2013-01-30 09:42:00,
2013-01-30 04:52:00,69.0,64.0,30.07,SE,141,5.0,8.0,84,-99.99,,,-99.99,,2013-01-30 09:52:00,
2013-01-30 05:02:00,69.0,64.0,30.07,SE,141,5.0,8.0,84,-99.99,,,-99.99,,2013-01-30 10:02:00,
2013-01-30 05:12:00,69.0,64.0,30.06,SE,143,5.0,7.0,85,-99.99,,,-99.99,,2013-01-30 10:12:00,
2013-01-30 05:21:00,69.0,64.0,30.06,SE,143,5.0,7.0,85,-99.99,,,-99.99,,2013-01-30 10:21:00,
2013-01-30 05:32:00,69.0,64.0,30.06,SE,143,5.0,11.0,85,-99.99,,,-99.99,,2013-01-30 10:32:00,
2013-01-30 05:42:00,69.0,64.0,30.06,SE,144,7.0,9.0,83,-99.99,,,-99.99,,2013-01-30 10:42:00,
2013-01-30 05:52:00,69.0,64.0,30.06,SSE,151,6.0,9.0,83,-99.99,,,-99.99,,2013-01-30 10:52:00,
2013-01-30 06:02:00,69.0,64.0,30.06,SSE,151,6.0,9.0,83,-99.99,,,-99.99,,2013-01-30 11:02:00,
2013-01-30 06:11:00,69.0,64.0,30.06,SSE,156,5.0,10.0,83,-99.99,,,-99.99,,2013-01-30 11:11:00,
2013-01-30 06:22:00,69.0,64.0,30.06,SSE,156,5.0,10.0,83,-99.99,,,-99.99,,2013-01-30 11:22:00,
2013-01-30 06:33:00,69.0,64.0,30.07,SSE,157,4.0,6.0,83,-99.99,,,-99.99,,2013-01-30 11:33:00,
2013-01-30 06:42:00,69.0,64.0,30.07,SSE,153,4.0,7.0,84,-99.99,,,-99.99,,2013-01-30 11:42:00,
2013-01-30 06:52:00,68.0,63.0,30.08,SSE,155,4.0,7.0,84,-99.99,,,-99.99,,2013-01-30 11:52:00,
2013-01-30 07:02:00,68.0,63.0,30.08,SSE,155,4.0,7.0,84,-99.99,,,-99.99,,2013-01-30 12:02:00,
2013-01-30 07:12:00,68.0,63.0,30.08,SSE,150,4.0,5.0,84,-99.99,,,-99.99,,2013-01-30 12:12:00,
2013-01-30 07:22:00,68.0,63.0,30.08,SSE,150,4.0,5.0,84,-99.99,,,-99.99,,2013-01-30 12:22:00,
2013-01-30 07:33:00,68.0,63.0,30.08,SE,137,5.0,6.0,84,-99.99,,,-99.99,,2013-01-30 12:33:00,
2013-01-30 07:43:00,68.0,63.0,30.08,SE,141,6.0,11.0,85,-99.99,,,-99.99,,2013-01-30 12:43:00,
2013-01-30 08:03:00,68.0,64.0,30.08,SE,142,6.0,9.0,84,-99.99,,,-99.99,,2013-01-30 13:03:00,
2013-01-30 08:12:00,69.0,63.0,30.08,SE,144,6.0,9.0,81,-99.99,,,-99.99,,2013-01-30 13:12:00,
2013-01-30 08:23:00,69.0,63.0,30.08,SE,144,6.0,9.0,81,-99.99,,,-99.99,,2013-01-30 13:23:00,
2013-01-30 08:33:00,71.0,63.0,30.08,SSE,148,7.0,11.0,77,-99.99,,,-99.99,,2013-01-30 13:33:00,
2013-01-30 08:43:00,72.0,64.0,30.08,SSE,154,7.0,12.0,74,-99.99,,,-99.99,,2013-01-30 13:43:00,
2013-01-30 08:53:00,73.0,64.0,30.08,SSE,155,9.0,16.0,72,-99.99,,,-99.99,,2013-01-30 13:53:00,
2013-01-30 09:03:00,73.0,64.0,30.08,SSE,155,9.0,16.0,72,-99.99,,,-99.99,,2013-01-30 14:03:00,
2013-01-30 09:12:00,74.0,64.0,30.09,SSE,165,8.0,14.0,71,-99.99,,,-99.99,,2013-01-30 14:12:00,
2013-01-30 09:23:00,74.0,64.0,30.09,SSE,165,8.0,14.0,71,-99.99,,,-99.99,,2013-01-30 14:23:00,
2013-01-30 09:33:00,74.0,64.0,30.09,SSE,165,8.0,14.0,71,-99.99,,,-99.99,,2013-01-30 14:33:00,
2013-01-30 09:42:00,73.0,64.0,30.08,SSE,161,13.0,21.0,72,-99.99,,,-99.99,,2013-01-30 14:42:00,
2013-01-30 09:53:00,74.0,64.0,30.08,SSE,157,13.0,21.0,68,-99.99,,,-99.99,,2013-01-30 14:53:00,
2013-01-30 10:03:00,74.0,64.0,30.08,SSE,157,13.0,21.0,68,-99.99,,,-99.99,,2013-01-30 15:03:00,
2013-01-30 10:12:00,74.0,64.0,30.08,SSE,159,13.0,20.0,69,-99.99,,,-99.99,,2013-01-30 15:12:00,
2013-01-30 10:23:00,74.0,64.0,30.08,SSE,159,13.0,20.0,69,-99.99,,,-99.99,,2013-01-30 15:23:00,
2013-01-30 10:33:00,75.0,64.0,30.08,SSE,155,15.0,25.0,67,-99.99,,,-99.99,,2013-01-30 15:33:00,
2013-01-30 10:43:00,76.0,64.0,30.08,SSE,156,16.0,24.0,65,-99.99,,,-99.99,,2013-01-30 15:43:00,
2013-01-30 10:54:00,76.0,64.0,30.07,SSE,157,16.0,27.0,64,-99.99,,,-99.99,,2013-01-30 15:54:00,
2013-01-30 11:03:00,76.0,64.0,30.07,SSE,157,16.0,27.0,64,-99.99,,,-99.99,,2013-01-30 16:03:00,
2013-01-30 11:12:00,77.0,64.0,30.06,SSE,155,17.0,24.0,63,-99.99,,,-99.99,,2013-01-30 16:12:00,
2013-01-30 11:23:00,77.0,64.0,30.06,SSE,155,17.0,24.0,63,-99.99,,,-99.99,,2013-01-30 16:23:00,
2013-01-30 11:32:00,77.0,64.0,30.05,SSE,159,17.0,25.0,63,-99.99,,,-99.99,,2013-01-30 16:32:00,
2013-01-30 11:42:00,77.0,64.0,30.05,SSE,160,17.0,25.0,65,-99.99,,,-99.99,,2013-01-30 16:42:00,
2013-01-30 11:52:00,77.0,65.0,30.05,SSE,160,15.0,22.0,65,-99.99,,,-99.99,,2013-01-30 16:52:00,
2013-01-30 12:03:00,77.0,65.0,30.05,SSE,160,15.0,22.0,65,-99.99,,,-99.99,,2013-01-30 17:03:00,
2013-01-30 12:13:00,77.0,65.0,30.04,SSE,165,16.0,25.0,64,-99.99,,,-99.99,,2013-01-30 17:13:00,
2013-01-30 12:23:00,77.0,65.0,30.04,SSE,165,16.0,25.0,64,-99.99,,,-99.99,,2013-01-30 17:23:00,
2013-01-30 12:33:00,77.0,65.0,30.04,SSE,165,16.0,25.0,64,-99.99,,,-99.99,,2013-01-30 17:33:00,
2013-01-30 12:43:00,77.0,64.0,30.01,SSE,159,18.0,27.0,63,-99.99,,,-99.99,,2013-01-30 17:43:00,
2013-01-30 12:53:00,78.0,65.0,30.00,SSE,166,16.0,26.0,63,-99.99,,,-99.99,,2013-01-30 17:53:00,
2013-01-30 13:03:00,78.0,65.0,30.00,SSE,166,16.0,26.0,63,-99.99,,,-99.99,,2013-01-30 18:03:00,
2013-01-30 13:13:00,78.0,65.0,29.99,SSE,164,14.0,29.0,64,-99.99,,,-99.99,,2013-01-30 18:13:00,
2013-01-30 13:23:00,78.0,65.0,29.99,SSE,164,14.0,29.0,64,-99.99,,,-99.99,,2013-01-30 18:23:00,
2013-01-30 13:33:00,77.0,66.0,29.99,SSE,157,15.0,22.0,66,-99.99,,,-99.99,,2013-01-30 18:33:00,
2013-01-30 13:43:00,78.0,66.0,29.97,SSE,164,17.0,26.0,65,-99.99,,,-99.99,,2013-01-30 18:43:00,
2013-01-30 13:53:00,79.0,66.0,29.96,SSE,163,16.0,25.0,64,-99.99,,,-99.99,,2013-01-30 18:53:00,
2013-01-30 14:03:00,79.0,66.0,29.96,SSE,163,16.0,25.0,64,-99.99,,,-99.99,,2013-01-30 19:03:00,
2013-01-30 14:13:00,78.0,67.0,29.96,SSE,162,16.0,26.0,66,-99.99,,,-99.99,,2013-01-30 19:13:00,
2013-01-30 14:22:00,78.0,67.0,29.96,SSE,162,16.0,26.0,66,-99.99,,,-99.99,,2013-01-30 19:22:00,
2013-01-30 14:33:00,78.0,66.0,29.96,South,172,17.0,25.0,67,-99.99,,,-99.99,,2013-01-30 19:33:00,
2013-01-30 14:43:00,79.0,66.0,29.96,South,173,17.0,25.0,64,-99.99,,,-99.99,,2013-01-30 19:43:00,
2013-01-30 14:53:00,78.0,66.0,29.95,SSE,167,16.0,24.0,66,-99.99,,,-99.99,,2013-01-30 19:53:00,
2013-01-30 15:03:00,78.0,66.0,29.95,SSE,167,16.0,24.0,66,-99.99,,,-99.99,,2013-01-30 20:03:00,
2013-01-30 15:12:00,78.0,66.0,29.96,South,181,15.0,25.0,66,-99.99,,,-99.99,,2013-01-30 20:12:00,
2013-01-30 15:22:00,78.0,66.0,29.96,South,181,15.0,25.0,66,-99.99,,,-99.99,,2013-01-30 20:22:00,
2013-01-30 15:33:00,78.0,66.0,29.96,South,181,15.0,25.0,66,-99.99,,,-99.99,,2013-01-30 20:33:00,
2013-01-30 15:42:00,78.0,66.0,29.97,South,187,14.0,23.0,64,-99.99,,,-99.99,,2013-01-30 20:42:00,
2013-01-30 15:53:00,79.0,66.0,29.97,South,173,13.0,20.0,64,-99.99,,,-99.99,,2013-01-30 20:53:00,
2013-01-30 16:04:00,79.0,66.0,29.97,South,173,13.0,20.0,64,-99.99,,,-99.99,,2013-01-30 21:04:00,
2013-01-30 16:12:00,79.0,66.0,29.98,South,187,13.0,18.0,63,-99.99,,,-99.99,,2013-01-30 21:12:00,
2013-01-30 16:23:00,79.0,66.0,29.98,South,187,13.0,18.0,63,-99.99,,,-99.99,,2013-01-30 21:23:00,
2013-01-30 16:32:00,79.0,66.0,29.99,South,191,12.0,17.0,63,-99.99,,,-99.99,,2013-01-30 21:32:00,
2013-01-30 16:42:00,77.0,66.0,29.99,South,179,10.0,16.0,66,-99.99,,,-99.99,,2013-01-30 21:42:00,
2013-01-30 16:53:00,78.0,66.0,29.99,SSW,196,11.0,14.0,66,-99.99,,,-99.99,,2013-01-30 21:53:00,
2013-01-30 17:03:00,78.0,66.0,29.99,SSW,196,11.0,14.0,66,-99.99,,,-99.99,,2013-01-30 22:03:00,
2013-01-30 17:12:00,77.0,66.0,30.00,SSW,210,10.0,17.0,67,-99.99,,,-99.99,,2013-01-30 22:12:00,
2013-01-30 17:22:00,77.0,66.0,30.00,SSW,210,10.0,17.0,67,-99.99,,,-99.99,,2013-01-30 22:22:00,
2013-01-30 17:32:00,78.0,66.0,29.99,SSW,210,11.0,16.0,65,-99.99,,,-99.99,,2013-01-30 22:32:00,
2013-01-30 17:42:00,78.0,66.0,29.98,SSW,195,11.0,15.0,66,-99.99,,,-99.99,,2013-01-30 22:42:00,
2013-01-30 17:53:00,78.0,66.0,29.98,SSW,195,11.0,15.0,66,-99.99,,,-99.99,,2013-01-30 22:53:00,
2013-01-30 18:03:00,78.0,66.0,29.98,SSW,195,11.0,15.0,66,-99.99,,,-99.99,,2013-01-30 23:03:00,
2013-01-30 18:12:00,78.0,66.0,29.98,SSW,195,11.0,15.0,66,-99.99,,,-99.99,,2013-01-30 23:12:00,